Terug naar catalogus

STARLINK-35284

ActiefCommunicatieVLEO
NORAD 65741·PAYLOAD·🇺🇸 United States

Gelanceerd Sep 25, 2025 vanaf Cape Canaveral Space Force Station

Loading…

Volgende Passages (komende 24 uur)

TLE

VersSource: CelesTrak SupGP

Epoch: Sep 15, 2026, 03:13 UTC

1 65741C 25216H   26258.13451389 -.00001382  00000+0 -40830-4 0  2588
2 65741  53.1573 170.7847 0001339  88.9710 102.6922 15.34382068    15

Volg STARLINK-35284 in realtime met AllMySat

Download on the App Store